SCP
4 4 3 3 3 3 3 3 3 2 1 1 1 1 1 1 1 1 0 0 0 0 0 0 0 0 0 0 0 0 0 0 1 1 1 1 2 4 6 10 14 19 22
4 4 4 3 3 2 2 2 2 1 1 1 1 1 1 1 1 0 0 0 0 0 0 0 0 0 0 0 0 0 0 0 0 1 1 1 1 2 3 5 9 12 14
5 5 4 4 3 2 2 2 1 1 1 1 1 1 1 1 0 0 0 0 0 0 0 0 0 0 0 0 0 0 0 0 0 0 0 0 0 0 0 1 2 4 5
5 5 4 4 3 2 2 1 1 1 1 1 1 1 1 0 0 0 0 0 0 0 0 0 0 0 0 0 0 0 0 0 0 0 0 0 0 0 0 0 0 1 1
5 5 4 3 2 2 1 1 1 1 1 1 1 1 0 0 0 0 0 0 0 0 0 0 0 0 0 0 0 0 0 0 0 0 0 0 0 0 0 0 0 0 0
5 4 4 3 2 1 1 1 0 0 0 0 0 0 0 0 0 0 0 0 0 0 0 0 0 0 0 0 0 0 0 0 0 0 0 0 0 0 0 0 0 0 0
4 3 3 2 1 1 0 0 0 0 0 0 0 0 0 0 0 0 0 0 0 0 0 0 0 0 0 0 0 0 0 0 0 0 0 0 0 0 0 0 0 0 0
3 3 2 1 1 1 1 0 0 0 0 0 0 0 0 0 0 0 0 0 0 0 0 0 0 0 0 0 0 0 0 0 0 0 0 0 0 0 0 0 0 0 0
2 2 1 1 1 1 1 0 0 0 0 0 0 0 0 0 0 0 0 0 0 0 0 0 0 0 0 0 0 0 0 0 0 0 0 0 0 0 0 0 0 0 0
1 1 1 1 2 2 1 0 0 0 0 0 0 0 0 0 0 0 0 0 0 0 0 0 0 0 0 0 0 0 0 0 0 0 0 0 0 0 0 0 0 0 0
1 1 1 1 2 2 1 1 0 0 0 0 0 0 0 0 0 0 0 0 0 0 0 0 0 0 0 0 0 0 0 0 0 0 0 0 0 0 0 0 0 0 0
1 1 1 2 2 2 2 1 0 0 0 0 0 0 0 0 0 0 0 0 0 0 0 0 0 0 0 0 0 0 0 0 0 0 0 0 0 0 0 0 0 0 0
1 1 1 2 2 2 2 1 1 0 0 0 0 0 0 0 0 0 0 0 0 0 0 0 0 0 0 0 0 0 0 0 0 0 0 0 0 0 0 0 0 0 0
1 1 1 2 2 2 2 1 1 1 1 0 0 0 0 0 0 0 0 0 0 0 0 0 0 0 0 0 0 0 0 0 0 0 0 0 0 0 0 0 0 0 0
2 2 1 2 2 2 2 1 1 1 1 1 0 0 0 0 0 0 0 0 0 0 0 0 0 0 0 0 0 0 0 0 0 0 0 0 0 0 0 0 0 0 0
5 4 2 2 2 2 2 1 1 1 1 1 1 0 0 0 0 0 0 0 0 0 0 0 0 1 1 1 0 0 0 0 0 0 0 0 0 0 0 0 0 0 0
8 6 4 2 2 2 2 2 1 1 1 1 1 1 1 0 0 0 0 0 0 0 0 0 1 1 1 1 0 0 0 0 0 0 0 0 0 0 0 0 0 0 0
8 7 5 3 2 2 2 2 2 2 1 1 1 1 1 1 1 0 0 0 0 0 0 0 1 1 1 1 0 0 0 0 0 0 0 0 0 0 0 0 0 0 0
7 7 6 4 3 2 2 2 2 2 2 2 1 1 1 1 1 1 0 0 0 0 0 0 1 1 1 0 0 0 0 0 0 0 0 0 0 0 0 0 0 0 0
11 9 7 6 4 3 3 3 2 2 2 2 1 1 1 1 1 1 0 0 0 0 0 0 0 0 0 0 0 0 0 0 0 0 0 0 0 0 0 0 0 0 0
19 15 11 8 6 4 3 3 2 2 2 2 1 1 1 1 1 0 0 0 0 0 0 0 1 1 1 1 0 0 0 0 0 0 0 0 0 0 0 0 0 0 0
25 21 14 10 7 5 4 3 2 2 2 2 1 1 1 0 1 1 1 1 1 1 1 1 1 1 1 0 0 0 0 0 0 0 0 0 0 0 0 0 0 0 0
20 19 15 10 6 5 3 3 2 2 2 1 1 1 0 0 1 1 1 1 1 1 1 1 1 1 0 0 0 0 0 0 0 0 0 0 0 0 0 0 0 0 0
10 12 12 8 5 4 3 2 2 2 2 1 1 1 1 0 1 1 1 1 1 1 1 1 1 0 0 0 0 0 0 0 0 0 0 0 0 0 0 0 0 0 0
4 7 9 7 4 3 2 2 2 2 2 2 1 1 1 0 1 1 1 1 1 1 1 0 0 0 0 0 0 0 0 0 0 0 0 0 0 0 0 0 0 0 0
5 6 7 6 4 3 2 2 2 2 2 2 1 1 1 0 0 0 0 0 0 0 0 0 0 0 0 0 0 0 0 0 0 0 0 0 0 0 0 0 0 0 0
Wind_Speed
6 7 8 8 8 6 6 6 6 5 5 4 4 4 3 3 3 3 4 4 4 4 4 3 3 3 3 2 2 2 2 2 1 2 2 3 2 0 1 2 2 3 3
8 7 7 8 7 7 6 6 6 6 5 4 3 3 4 3 3 2 3 4 4 4 4 4 3 3 3 4 3 3 2 2 2 2 2 2 3 3 1 0 1 1 1
13 11 9 8 8 8 7 7 6 6 5 5 4 4 4 3 3 3 2 2 4 4 4 4 4 4 3 3 3 3 3 2 2 2 3 3 1 1 3 2 1 0 0
12 11 10 9 9 8 7 7 6 6 5 6 6 7 5 4 3 3 2 2 4 4 4 4 4 4 3 3 3 3 2 3 2 2 2 2 3 2 1 3 2 1 0
14 13 12 11 9 9 8 7 6 5 5 6 7 7 5 4 3 3 4 3 2 3 4 5 5 4 3 4 4 3 3 2 2 1 1 2 2 2 2 0 3 3 2
14 12 11 10 8 8 8 7 7 5 5 6 6 8 8 7 7 5 4 2 2 2 4 5 4 4 3 3 3 3 4 3 3 2 2 2 2 1 2 1 1 1 2
14 13 13 12 11 11 10 8 8 6 6 6 6 7 8 8 8 6 5 4 2 2 2 4 3 3 3 3 3 3 3 3 3 2 1 1 1 1 2 2 1 1 2
14 14 14 14 13 13 11 10 9 7 7 6 6 6 7 5 4 5 5 4 3 3 3 4 3 3 3 3 3 2 2 2 2 3 2 2 1 1 1 2 2 1 2
15 15 14 14 13 13 12 11 10 8 8 7 6 6 6 5 5 5 5 4 4 4 4 4 4 3 3 3 3 2 2 2 2 2 2 2 1 2 2 2 2 3 1
15 15 14 14 13 12 11 10 10 9 8 8 7 6 6 6 6 5 6 5 4 4 5 4 4 3 3 3 3 2 1 2 1 1 2 2 1 2 2 2 2 2 3
16 15 14 13 13 12 11 10 10 8 8 8 6 7 6 6 6 6 6 6 4 5 5 4 4 3 3 3 3 2 2 2 1 1 2 1 1 1 1 1 2 1 2
16 15 15 13 13 13 12 12 11 10 9 8 7 7 6 6 6 6 6 6 5 5 5 4 4 3 3 3 3 2 2 2 2 1 1 1 1 1 1 1 1 0 1
15 14 14 14 14 14 13 12 12 11 10 9 8 7 7 7 7 6 6 6 5 5 4 4 4 4 3 3 3 3 3 3 3 2 2 2 1 1 1 1 1 1 0
16 16 15 15 15 14 14 13 12 11 11 10 9 9 8 8 7 7 6 6 5 5 5 4 4 4 4 4 3 3 3 2 2 2 3 3 3 3 3 2 2 1 0
15 17 17 15 14 14 13 13 12 12 12 11 10 10 8 8 7 7 6 6 5 6 5 5 4 4 4 4 4 4 4 3 2 2 2 3 4 6 5 3 3 3 2
16 17 17 16 16 16 15 13 13 12 12 12 11 10 9 8 8 7 7 6 5 5 5 5 5 4 4 6 8 6 4 4 3 3 3 4 4 5 7 8 7 7 5
15 17 17 18 18 17 16 16 14 12 12 12 11 10 10 10 9 9 7 7 6 5 5 5 5 5 6 7 8 8 5 4 4 4 4 4 4 4 3 5 6 7 9
15 16 16 15 14 14 14 14 13 13 13 12 11 11 11 10 9 8 8 7 6 6 5 5 6 5 6 9 9 9 5 4 5 5 5 5 5 5 5 4 4 5 6
13 14 15 15 14 14 14 14 13 13 13 13 12 12 12 11 10 9 9 7 6 6 5 5 6 6 6 10 11 9 3 4 5 5 5 6 6 9 8 5 5 6 6
11 12 12 11 13 13 14 15 14 14 14 14 13 12 11 11 11 10 8 6 6 6 6 5 6 7 7 10 12 10 4 4 5 4 5 7 8 9 9 6 5 7 8
10 12 13 13 14 14 15 15 14 15 14 12 11 11 11 11 10 8 6 6 6 6 6 6 6 6 8 10 13 12 6 6 5 4 4 5 8 9 10 8 7 10 8
9 11 12 11 11 14 15 15 15 13 11 11 11 11 10 9 9 8 7 6 7 6 6 5 5 4 6 8 10 14 13 9 6 6 5 5 8 9 10 8 10 12 8
10 10 11 11 10 12 15 15 13 11 11 11 11 10 9 8 7 8 8 6 6 5 5 4 4 4 4 5 9 12 14 14 8 6 8 8 9 8 8 11 12 9 4
7 8 11 11 10 10 11 11 11 12 12 11 10 9 8 7 7 6 6 6 6 6 5 5 5 4 4 4 4 4 6 8 8 7 7 9 9 8 9 8 7 5 5
5 8 10 10 9 9 8 8 10 11 11 10 9 8 8 8 7 6 6 7 7 8 8 6 6 5 6 8 10 6 5 5 6 4 2 3 3 4 4 5 5 5 4
5 7 7 8 8 8 7 7 8 10 10 8 7 6 6 5 5 5 4 7 8 11 13 12 9 8 10 10 10 11 10 9 7 5 3 4 5 6 6 6 6 5 6
Wind_Direction
146 145 145 149 143 138 136 140 138 137 128 123 124 127 128 123 111 114 116 112 105 103 97 96 89 86 88 84 82 87 68 43 59 65 21 359 358 318 230 205 190 201 200
147 152 151 152 149 144 144 144 144 142 141 138 138 135 131 128 118 107 104 110 107 108 104 97 95 92 89 72 62 71 77 32 50 108 89 31 1 352 352 341 187 195 188
161 163 162 156 152 154 157 153 150 147 149 139 119 110 93 83 80 91 91 101 109 105 103 103 98 91 92 89 76 76 88 69 21 68 126 129 186 314 339 347 360 18 184
164 163 163 160 162 161 153 147 147 144 143 136 134 140 139 143 156 150 129 109 108 113 112 107 101 93 92 91 81 81 89 97 59 20 43 123 152 136 2 338 347 353 346
169 169 168 165 161 155 149 145 138 133 133 133 141 141 139 140 134 126 119 104 95 105 109 109 104 100 95 93 84 79 78 87 97 69 40 45 50 77 121 358 334 346 327
172 169 165 157 155 152 149 144 139 136 134 131 134 139 142 140 136 135 133 120 101 92 106 109 105 106 101 97 94 86 84 83 85 78 76 94 91 86 114 134 304 322 315
171 167 164 162 161 159 157 153 148 144 143 137 137 141 142 144 148 152 150 141 129 123 127 114 113 112 113 106 97 84 78 82 84 81 80 87 109 153 137 123 115 354 321
174 173 171 169 167 165 162 160 158 155 153 147 144 141 140 142 144 149 148 152 153 153 144 132 129 120 115 109 97 85 85 87 83 75 78 73 45 80 119 140 132 59 349
176 175 174 172 170 168 169 169 164 159 159 156 147 144 144 146 145 145 140 145 150 149 141 135 129 123 117 113 103 92 85 88 84 82 82 77 42 53 72 104 131 137 122
175 175 176 175 174 172 171 169 166 165 163 158 157 154 151 149 147 140 141 145 148 140 138 138 140 138 130 125 115 106 93 103 95 100 84 71 52 48 55 77 93 127 149
177 177 178 176 173 170 170 169 169 163 164 164 160 151 155 151 147 145 151 150 148 149 149 153 153 152 149 141 129 142 134 126 105 87 103 90 86 66 42 62 75 90 128
178 177 176 172 171 173 173 173 173 171 171 166 160 160 159 152 152 156 159 155 155 163 163 160 160 168 165 161 156 167 153 154 164 163 120 117 111 80 58 70 66 76 148
175 175 175 175 176 176 176 177 177 175 171 166 164 163 163 161 163 165 166 164 164 171 168 161 171 181 180 177 177 175 172 175 182 183 179 199 161 182 215 184 195 238 181
177 176 178 179 179 178 177 177 179 175 170 168 168 171 173 173 172 171 172 175 172 173 180 181 184 186 185 183 184 180 177 182 191 195 198 204 197 207 211 212 216 210 219
177 179 181 180 178 177 178 178 178 176 173 170 174 180 178 173 170 172 176 179 180 185 185 185 189 188 187 193 188 189 187 191 210 233 237 232 226 220 209 204 205 195 200
180 181 181 180 179 178 179 178 179 177 172 174 180 178 175 174 175 178 178 178 187 190 185 189 190 197 205 198 196 187 183 187 199 225 251 258 253 242 234 232 218 201 199
180 181 182 183 182 181 179 180 179 174 174 178 178 177 176 178 182 184 180 184 190 189 191 198 195 203 216 212 207 197 181 194 210 221 234 249 243 234 235 251 252 241 235
181 182 181 181 180 177 175 175 171 172 175 178 180 179 178 182 183 182 186 191 187 189 195 203 203 205 222 217 213 207 196 211 228 229 227 232 248 243 228 234 250 255 254
182 181 180 177 174 173 170 167 171 173 176 181 183 183 182 182 183 187 191 191 186 192 197 197 199 205 224 221 218 208 197 228 245 246 239 229 237 246 235 226 245 264 271
178 173 168 165 169 172 166 165 171 175 183 186 185 182 182 183 188 191 190 185 185 195 197 204 207 208 220 225 222 209 196 226 246 255 253 242 239 246 238 220 226 249 261
177 168 164 169 174 168 164 169 174 184 187 180 176 177 181 184 186 185 184 183 185 189 197 208 219 220 224 228 226 213 200 214 230 240 247 247 246 248 244 230 224 239 249
165 163 165 171 169 166 166 172 184 185 172 167 171 176 177 182 184 179 184 184 183 191 203 212 231 237 233 229 229 221 214 210 213 231 237 242 250 251 252 242 242 250 256
163 161 160 162 166 170 172 180 184 168 164 167 174 177 178 181 174 176 182 182 185 193 204 206 224 241 239 237 234 227 222 220 220 236 239 245 254 260 259 253 254 255 239
155 151 151 155 163 172 176 177 167 163 164 171 176 176 178 182 181 182 184 187 192 198 204 210 221 233 239 238 229 218 220 222 227 242 255 261 262 257 255 261 260 238 222
140 146 152 156 160 159 162 164 160 159 165 172 176 178 181 185 189 192 195 197 204 199 201 211 209 213 234 238 221 202 207 205 210 205 236 250 257 261 260 258 256 246 231
113 123 132 139 143 143 146 154 156 159 162 167 173 176 177 181 183 187 208 220 213 213 212 215 213 222 229 235 223 217 218 216 197 180 223 238 243 248 252 255 258 249 240